Starlink 30145

operational
NORAD ID: 57496 Int'l Des: 2023-113 Owner: SPXS Country: US Constellation: starlink
LEOCIRCULAR

About Starlink 30145

Description loading...

Live Position

Loading 3D Globe...

Upcoming Passes

Altitude History

Altitude vs Time

uPlot chart will show altitude changes over time

Two-Line Element Set

1 57496U 23113B 25306.48560947 .00000987 00000-0 88139-4 0 9997
2 57496 43.0027 348.6796 0001293 272.2617 87.8078 15.02534271124414
Epoch: Nov 2, 2025 • Age: 35 hours

Current Status

Altitude 562.2 km
Velocity 7.59 km/s
Sub-Earth Point 39.51°N, 12.9°E
Launch Date Aug 7, 2023
Age 2.2 years
Type internet

Technical Details

Classification Payload
Mass 730.00 kg
Dry Mass 700.00 kg
Total Mass 730.00 kg
Length 0.30 m
Diameter 4.10 m
Span 29.00 m
Shape Box + pan
Manufacturer SPXS
Bus Type Starlink V2M
Phase Status In Orbit
Owner/State SPXS/US

Large Constellations

Loading constellations...